CDT,Max TemperatureF,Mean TemperatureF,Min TemperatureF,Max Dew PointF,MeanDew PointF,Min DewpointF,Max Humidity, Mean Humidity, Min Humidity, Max Sea Level PressureIn, Mean Sea Level PressureIn, Min Sea Level PressureIn, Max VisibilityMiles, Mean VisibilityMiles, Min VisibilityMiles, Max Wind SpeedMPH, Mean Wind SpeedMPH, Max Gust SpeedMPH,PrecipitationIn, CloudCover, Events, WindDirDegrees
2013-4-1,62,49,35,42,37,28,89,66,43,30.13,30.02,29.90,10,10,10,24,15,30,0.00,4,,26
2013-4-2,38,35,32,35,30,24,96,80,64,30.24,30.17,30.11,10,7,2,17,12,23,T,8,Rain,41
2013-4-3,38,35,32,33,31,30,96,86,76,30.26,30.20,30.13,10,6,2,17,9,23,0.01,8,Rain-Snow,29
2013-4-4,69,50,30,36,31,27,96,60,24,30.25,30.17,30.08,10,8,0,15,4,20,0.00,2,Fog,81
2013-4-5,81,62,42,38,34,28,82,49,15,30.10,29.93,29.70,10,10,10,29,16,48,0.00,0,,189
2013-4-6,76,65,53,38,30,25,46,31,16,29.83,29.77,29.66,10,10,6,26,10,32,0.00,1,,10
2013-4-7,80,66,52,55,42,35,68,44,20,29.76,29.64,29.52,10,10,10,22,8,28,0.00,0,,142
2013-4-8,89,69,49,55,38,19,89,49,8,29.66,29.49,29.32,10,9,2,25,9,38,0.00,2,,210
2013-4-9,68,47,25,58,31,11,84,66,47,30.09,29.71,29.34,10,8,2,33,22,40,T,6,Rain,352
2013-4-10,46,34,21,10,8,6,55,39,22,30.18,30.10,29.98,10,10,10,30,16,36,0.00,4,,345
2013-4-11,70,47,24,26,16,10,55,35,14,30.06,29.85,29.68,10,10,10,20,9,29,0.00,0,,329
2013-4-12,71,56,40,38,28,25,59,40,20,29.97,29.89,29.79,10,10,10,20,6,25,0.00,2,,118
2013-4-13,79,61,43,46,36,28,76,50,23,29.93,29.72,29.47,10,10,7,36,14,51,T,2,Rain-Thunderstorm,176
2013-4-14,80,67,54,50,38,21,77,47,16,29.61,29.45,29.38,10,10,10,29,15,44,0.00,0,,110
2013-4-15,78,61,43,45,27,14,64,41,18,29.75,29.67,29.57,10,10,10,22,11,30,0.00,1,,93
2013-4-16,65,53,41,43,33,27,71,53,34,29.99,29.87,29.74,10,10,10,20,11,26,0.00,4,,63
2013-4-17,52,44,35,46,41,31,96,84,71,29.94,29.80,29.68,10,3,0,28,14,36,0.04,8,Fog-Rain,33
2013-4-18,46,37,28,31,20,12,82,54,25,30.25,30.09,29.93,10,10,10,28,17,40,0.00,4,,345
2013-4-19,65,47,28,18,13,6,63,37,10,30.25,30.14,29.96,10,10,10,18,9,29,0.00,0,,236
2013-4-20,77,63,48,27,17,10,30,20,9,29.94,29.83,29.71,10,10,10,26,13,38,0.00,1,,182
2013-4-21,75,59,43,43,30,25,53,35,16,30.02,29.94,29.88,10,10,10,29,10,38,0.00,0,,161
2013-4-22,89,62,34,46,35,14,83,45,6,30.02,29.78,29.58,10,9,2,41,17,52,0.00,2,,242
2013-4-23,34,31,27,31,25,21,92,77,61,30.37,30.19,30.04,10,8,4,29,18,37,T,7,Rain-Snow,8
2013-4-24,64,44,24,23,17,10,88,51,13,30.37,30.28,30.16,10,10,10,20,8,25,0.00,0,,217
2013-4-25,71,57,42,29,22,5,49,30,10,30.25,30.15,29.96,10,10,10,23,14,31,0.00,1,,170
2013-4-26,79,66,52,48,42,31,67,46,25,30.12,29.97,29.84,10,10,10,29,9,37,0.00,2,,327
2013-4-27,81,63,44,42,35,24,83,48,13,30.17,30.05,29.91,10,10,10,21,6,31,0.00,0,,245
2013-4-28,89,73,57,37,29,20,42,25,8,29.92,29.81,29.69,10,10,10,28,12,36,0.00,0,,224
2013-4-29,94,79,64,39,30,13,40,23,5,29.72,29.62,29.48,10,10,10,26,17,36,0.00,0,,210
2013-4-30,96,81,65,49,40,29,45,28,11,29.55,29.50,29.42,10,10,10,32,17,43,0.00,0,,177